Regional Weather Roundup
Issued by NWS Charleston, SC

Current Version | Previous Version | Graphics & Text | Print | Product List | Glossary On
Versions: 1 2 3 4 5 6 7 8 9 10 11 12 13 14 15 16 17 18 19 20 21 22 23 24 25 26 27 28 29 30 31 32 33 34 35 36 37 38 39 40 41 42 43 44 45 46 47 48 49 50
000 ASUS42 KCHS 212010 RWRCHS REGIONAL WEATHER ROUNDUP NATIONAL WEATHER SERVICE CHARLESTON SC 400 PM EDT SUN SEP 21 2014 NOTE: "FAIR" INDICATES FEW OR NO CLOUDS BELOW 12,000 FEET WITH NO SIGNIFICANT WEATHER AND/OR OBSTRUCTIONS TO VISIBILITY. NOT ALL STATIONS ARE QUALITY CONTROLLED BY THE NATIONAL WEATHER SERVICE. USE DATA WITH CAUTION...ESPECIALLY DEWPOINT OBSERVATIONS. SCZ027-030-031-034>040-042>050-212100- ...SOUTH CAROLINA... CITY SKY/WX TMP DP RH WIND PRES REMARKS N CHARLESTON MOSUNNY 88 61 40 W9 29.89F WATERFRONT PRK N/A 84 N/A N/A NW6 N/A FORT JOHNSON NOT AVBL MOUNT PLEASANT FAIR 86 64 48 NW8 29.89S JOHNS ISLAND CLEAR 88 72 58 W7 29.90S HX 94 PINOPOLIS N/A 88 66 48 W6 29.82S HX 90 MONCKS CORNER N/A 88 68 51 W5 29.88F HX 91 SUMMERVILLE FAIR 88 64 45 SW5 29.90S BEAUFORT MCAS MOSUNNY 88 63 43 W8 29.91S BEAUFORT ARPT FAIR 88 64 45 W10 29.91S HILTON HEAD IS SUNNY 88 64 45 W6 29.93F GEORGETOWN NOT AVBL WALTERBORO CLEAR 88 54 31 W10 29.91S ORANGEBURG SUNNY 87 58 37 W10 29.89F BARNWELL FAIR 90 63 40 W10 29.91S HX 90 AIKEN MOCLDY 88 66 48 W9 29.94F HX 90 MANNING FAIR 88 64 45 SW8 29.87F KINGSTREE NOT AVBL COLUMBIA MOSUNNY 89 61 38 W17G24 29.87F SUMTER MOSUNNY 88 65 45 W12 29.86F HX 90 FLORENCE SUNNY 87 63 44 W10 29.85F MYRTLE BEACH SUNNY 86 63 45 W12 29.86S N MYRTLE BEACH SUNNY 85 60 42 NW6 29.85S $$ GAZ063-065-086>088-099>101-113>116-118-119-134-136>141-150-212100- ...GEORGIA... CITY SKY/WX TMP DP RH WIND PRES REMARKS SAVANNAH ARPT MOSUNNY 88 62 41 NW12 29.92F HUNTER AAF SUNNY 88 62 42 NW9 29.91F FORT STEWART SUNNY 89 59 36 SW6 29.92F STATESBORO NOT AVBL SYLVANIA CLEAR 88 66 48 W7 29.93S HX 90 CLAXTON FAIR 88 66 48 W7 29.93F HX 90 THOMSON SUNNY 87 70 55 W8 29.97S HX 92 AUGUSTA-BUSH MOSUNNY 89 59 36 NW14 29.90F AUGUSTA-DANIEL MOSUNNY 88 61 40 VRB7 29.93S SWAINSBORO FAIR 90 63 40 W8 29.95S HX 90 VIDALIA MOSUNNY 88 61 40 W6 29.95F ALMA SUNNY 88 57 34 VRB6 29.96F WAYCROSS NOT AVBL JESUP FAIR 91 59 33 NW7 29.95S HX 90 BRUNSWICK SUNNY 88 55 33 W5 29.95F SAINT SIMONS SUNNY 86 64 47 E9 29.95F $$ SCZ027-028-034-036>038-045-046-048>050-GAZ119-141-212100- ...LAKE AND SUPPLEMENTAL COASTAL OBSERVATIONS... STATION/POSITION TIME TEMP WIND PRES WAVE SWELL AIR SEA DIR/SP/G HT/PER HT/PER/DIR (UTC) (F) (DEG/KT/KT) (MB) (FT/S) (FT/S/D) UPR LAKE MARION NOT AVBL WINYAH BAY 1900 82 290/ 9 1012.0S LAKE MURRAY 1900 84 270/ 14/ 19 1011.2F ACE BASIN NERRS 1900 85 280/ 4 1013.0F FORT PULASKI 2000 85 290/ 10/ 12 1013.4F SAPELO ISLAND 1900 87 310/ 6 1015.0S $$ ANZ835-935-AMZ111-154-330-350-352-354-374-450-454-472-212100- ...C-MAN AND BUOY OBSERVATIONS... STATION/POSITION TIME TEMP WIND PRES WAVE SWELL AIR SEA DIR/SP/G HT/PER HT/PER/DIR (UTC) (F) (DEG/KT/KT) (MB) (FT/S) (FT/S/D) FOLLY BEACH CMAN 1900 85 280/ 5/ 9 1013.0F BUOY 41004 2000 80 82 250/ 10/ 12 1012.3F 4/ 8 3/ 8 BUOY 41008 2000 81 83 240/ 4/ 6 1014.1F 3/ 6 3/ 70/ 6 5E ST. MARYS GA 2000 85 N/A 3/ 8 FRYING PAN BUOY NOT AVBL BUOY 41025 1900 77 310/ 17/ 21 1007.0 7/ 8 5/140/ 8 CAPE LOOKOUT NC 1900 78 300/ 11/ 13 1008.9S BUOY 41002 1919 80 81 270/ 17/ 23 1012.1R 10/ 8 BUOY 41010 2000 82 85 310/ 8/ 10 1014.5F 4/10 5/ 10/10 BUOY 41012 NOT AVBL ST AUGUSTINE FL 2000 78 20/ 7/ 8 1015.7F CAPERS NEARSHORE 1900 83 300/ 6/ 8 N/A FRIPP NEARSHORE NOT AVBL $$

USA.gov is the U.S. government's official web portal to all federal, state and local government web resources and services.